Presure
144 115 122 116 122 127 125 133 112 125 112 121 115 126 103 117 118 128 133 138 135 137 116 128 123 124 131 112 130 125 147 136 146 133 140 137 127 137 121 136 124 124 126 134 148 128 134 141 135
111 118 141 129 135 132 128 117 121 104 115 110 110 115 120 122 124 126 128 144 126 140 139 130 126 128 129 124 118 127 141 152 150 134 133 136 149 140 123 130 137 125 117 135 139 136 130 118 132
117 130 133 136 139 111 126 122 121 111 116 107 121 118 123 125 134 137 119 141 145 123 150 168 122 128 130 131 119 139 131 148 144 143 138 137 133 146 138 125 134 131 140 122 144 130 124 126 138
119 117 108 106 112 115 124 134 124 114 112 99 118 113 120 122 125 126 136 137 147 152 170 175 150 135 131 117 128 129 128 138 123 134 129 137 129 129 126 136 127 139 102 131 132 131 124 128 130
120 124 117 129 121 128 129 132 133 115 134 122 121 126 122 122 120 132 138 129 170 151 155 187 131 131 133 128 130 132 134 125 142 142 127 137 124 139 131 134 121 126 137 133 139 134 142 154 142
111 115 123 121 115 137 115 121 118 117 121 119 124 117 118 125 127 132 129 148 164 164 172 183 167 129 127 121 126 130 130 135 141 137 140 133 125 141 114 128 116 140 132 140 136 130 135 149 154
104 115 118 112 117 94 125 131 110 117 127 115 127 132 119 130 148 124 138 138 164 225 176 188 175 154 128 130 133 127 128 132 133 143 144 134 137 151 137 129 139 137 135 142 130 147 152 140 152
107 124 118 123 142 158 136 128 132 126 111 128 120 113 147 126 134 134 142 182 172 142 217 212 163 176 144 141 130 135 129 134 132 112 137 142 154 137 147 140 136 137 140 127 148 126 132 134 142
114 112 115 121 119 122 143 140 146 138 130 126 134 133 136 141 135 135 142 141 157 177 155 211 178 165 172 146 141 139 139 123 133 132 131 140 139 146 135 137 128 130 141 133 142 132 143 152 160
144 131 116 104 126 138 122 131 128 137 129 123 131 151 131 143 124 135 134 133 156 164 164 234 197 185 154 139 139 152 133 149 132 145 134 134 131 146 148 137 144 131 139 138 132 145 144 136 153
143 120 133 119 121 128 131 133 142 127 135 143 134 136 142 132 119 118 132 146 138 151 181 168 228 183 172 161 167 154 129 143 125 116 132 134 124 137 146 134 131 147 148 147 128 140 152 134 143
148 151 154 148 148 135 133 137 139 146 148 145 154 135 137 130 136 134 140 133 124 140 147 177 172 214 172 174 161 159 142 159 150 141 137 158 139 124 120 145 129 122 150 153 151 148 152 148 133
147 145 119 132 155 157 146 146 159 133 138 148 164 125 123 124 131 126 132 142 126 137 138 144 152 161 186 201 163 181 171 130 140 150 148 135 133 148 129 129 142 135 135 145 135 153 153 130 134
152 157 168 132 127 151 116 122 120 128 131 138 132 147 141 141 133 132 129 128 136 131 135 137 147 153 169 171 174 178 142 146 136 143 134 121 156 139 123 131 149 134 128 141 133 142 152 161 143
159 132 190 134 171 127 143 128 130 125 132 141 120 140 146 155 133 135 135 128 126 135 121 131 131 139 151 155 197 168 208 194 136 159 119 154 144 151 126 137 124 136 144 151 134 144 142 144 145
142 149 140 168 145 136 165 125 132 155 139 126 145 145 144 154 139 132 141 135 130 122 127 132 131 137 160 153 172 187 201 203 208 200 142 144 120 140 142 144 137 141 141 143 138 141 142 152 131
138 147 142 142 147 161 162 139 158 142 132 143 142 150 142 144 144 125 124 135 124 136 130 132 136 175 185 163 157 186 192 195 192 159 203 156 156 133 144 146 146 138 140 151 128 151 138 149 149
136 125 128 138 140 138 140 142 144 148 150 193 155 140 126 157 154 131 134 124 124 129 125 130 169 174 187 201 182 160 187 182 201 191 206 216 161 139 149 145 144 149 152 147 141 143 145 150 142
116 125 132 137 127 122 130 135 143 144 129 125 135 129 150 144 152 132 133 129 136 147 126 154 158 158 185 183 185 199 192 174 190 200 197 197 141 162 179 158 135 140 162 144 137 136 140 145 134
129 127 148 131 135 142 133 135 146 151 154 140 133 140 141 145 147 121 130 138 126 132 177 168 159 151 176 184 192 202 199 195 195 182 201 195 161 220 140 163 150 148 154 140 167 139 138 135 143
123 131 147 141 153 131 140 151 133 133 135 132 114 131 136 131 181 155 121 147 132 153 148 165 151 157 146 163 196 200 160 180 193 191 163 184 196 306 128 134 150 176 142 148 153 157 134 134 147
137 139 117 152 149 152 146 129 152 135 125 131 135 130 145 141 160 141 147 120 147 155 150 149 137 153 152 165 141 209 221 259 184 196 189 193 193 315 234 151 154 150 150 143 147 140 148 146 144
144 141 151 147 156 150 150 152 133 155 163 134 158 146 125 133 138 112 139 135 153 143 147 164 132 145 168 154 163 179 192 210 179 184 180 192 182 270 315 142 149 167 134 146 144 158 141 141 144
165 161 134 109 145 193 157 169 124 158 132 122 117 129 121 116 132 126 138 142 141 152 147 140 161 175 145 144 150 183 201 210 240 218 172 191 176 201 274 229 189 161 160 171 140 165 157 147 157
148 147 143 155 113 158 147 150 154 130 148 142 143 123 166 153 144 142 145 148 132 136 146 151 198 142 147 144 152 158 172 194 243 214 177 189 189 175 223 271 210 163 140 152 168 170 157 160 146
105 150 156 155 126 188 125 143 155 153 148 153 131 146 159 166 163 158 145 150 163 142 134 156 122 153 141 138 147 155 147 192 211 216 201 179 188 179 172 221 277 242 173 152 186 162 164 156 148
167 162 162 166 160 187 143 150 138 146 147 123 155 155 152 159 141 141 141 152 141 144 135 168 147 215 153 138 145 150 160 183 203 240 172 173 173 174 199 199 215 266 264 188 141 147 171 158 162
214 217 217 214 204 173 149 155 134 176 198 133 189 131 149 145 156 143 133 124 142 137 151 148 146 193 145 148 137 143 152 155 178 153 220 192 216 168 173 179 207 246 267 251 210 151 149 163 171
222 219 193 207 208 188 207 195 180 212 181 156 153 200 150 149 127 137 136 141 147 165 147 125 130 150 164 150 151 142 158 158 179 192 156 170 158 177 168 172 242 205 289 251 236 223 179 153 163
211 209 211 207 208 133 145 139 147 135 121 204 203 206 152 150 214 129 140 140 145 135 145 125 135 142 144 136 137 143 147 154 155 185 203 163 166 218 203 254 268 185 325 186 264 250 219 156 158
Wind_Speed
17 13 10 19 22 22 19 19 22 21 16 24 25 25 26 25 26 26 26 25 22 17 18 15 16 15 19 21 20 19 19 21 20 20 17 17 17 13 20 13 18 19 19 24 24 26 31 33 34
19 15 22 16 20 21 21 19 20 25 19 25 25 26 27 27 27 26 25 26 20 21 16 12 13 11 13 13 18 16 22 20 17 18 17 18 21 14 18 9 7 18 27 24 24 27 31 25 34
18 19 21 17 20 23 24 21 20 17 24 23 24 24 24 26 28 26 22 27 27 16 19 15 13 9 11 11 12 14 16 25 18 18 18 15 13 18 13 20 15 16 16 24 21 26 28 30 29
9 18 21 25 24 24 27 21 19 19 20 23 18 22 23 27 26 25 25 25 26 24 21 11 6 5 8 13 11 16 14 19 19 13 14 13 12 11 16 15 14 17 24 21 23 24 28 30 27
4 10 15 12 19 16 19 19 18 19 19 17 20 23 23 25 25 26 27 24 28 23 19 8 8 5 6 8 10 12 13 13 19 14 14 9 14 12 14 10 19 17 24 23 24 28 25 20 24
11 9 12 12 16 18 16 14 17 17 18 18 21 21 22 25 25 26 26 27 25 22 16 6 2 5 9 11 10 11 12 11 14 11 15 8 9 11 18 13 21 17 21 21 23 29 29 23 18
12 14 12 16 17 22 14 12 13 16 17 16 20 24 22 25 29 25 29 29 23 8 13 5 5 4 7 4 5 10 11 8 9 12 9 8 5 13 7 10 16 19 15 16 24 24 23 26 23
11 13 9 13 21 27 18 11 11 14 18 18 21 21 28 21 23 26 27 25 24 19 3 4 9 8 5 4 5 5 9 8 10 14 11 12 14 8 11 12 15 15 13 20 19 20 23 23 25
7 10 10 16 19 18 12 12 14 16 17 17 21 23 21 22 22 21 25 20 22 24 17 5 7 8 7 8 5 5 4 10 9 4 9 11 9 7 6 9 13 14 13 14 16 18 20 24 26
34 22 11 11 23 25 11 16 16 14 19 20 20 20 18 20 17 19 20 19 26 25 22 8 9 9 6 8 4 6 3 7 4 4 6 9 10 6 7 7 8 11 11 10 15 17 20 24 27
30 12 20 14 19 21 19 17 20 15 21 20 19 18 17 15 13 16 16 24 15 30 22 20 11 7 11 7 7 8 3 7 4 9 4 5 10 9 4 5 11 12 12 11 14 18 17 19 24
30 30 28 27 29 25 18 17 18 22 20 18 18 16 16 14 18 17 22 21 10 25 28 18 16 4 10 12 10 9 10 10 15 11 9 7 8 8 12 6 10 15 12 12 14 17 19 19 20
22 25 8 14 26 26 22 23 26 16 13 14 21 13 13 16 16 15 18 22 18 22 22 24 24 21 10 10 12 12 19 4 8 14 14 6 4 9 5 9 9 9 14 15 16 20 21 19 21
16 21 24 18 15 20 13 15 16 20 18 14 14 15 15 16 15 15 15 18 21 22 23 24 25 25 20 16 12 14 12 13 10 13 2 7 9 3 6 6 8 10 13 12 15 20 21 22 19
12 12 20 12 20 11 17 14 16 17 19 18 13 17 16 18 13 16 14 15 19 23 19 24 24 25 25 21 15 18 16 28 10 23 9 16 9 14 5 4 8 8 11 14 14 21 17 18 17
14 13 11 12 13 13 18 13 21 23 20 14 20 19 16 20 13 17 19 19 18 18 20 21 22 24 23 23 19 20 14 16 20 17 14 12 6 9 9 11 5 6 6 9 15 16 18 19 17
11 13 14 12 13 13 16 16 17 16 15 20 19 19 17 15 17 13 17 19 14 19 20 22 26 15 16 21 22 18 18 17 17 15 20 20 20 4 11 12 8 3 6 12 9 12 14 21 20
13 8 9 14 13 11 12 14 16 16 20 17 22 15 11 18 16 16 16 12 14 14 17 23 23 20 19 17 19 15 19 19 16 18 19 23 23 10 21 15 10 13 12 7 9 10 14 16 16
11 11 13 16 10 12 14 14 15 17 15 14 15 17 17 14 16 13 15 15 20 22 17 22 21 22 22 21 21 22 20 15 14 14 20 25 13 26 26 29 3 7 18 3 7 8 12 15 11
18 16 22 15 18 18 17 16 16 17 18 20 17 19 17 17 16 6 12 21 12 21 23 22 22 21 25 21 19 22 23 20 16 16 16 20 15 25 9 20 20 11 20 1 20 6 10 10 15
16 22 24 24 25 16 22 18 19 17 19 18 4 14 12 12 22 18 10 18 14 19 15 22 20 22 22 26 22 20 15 19 18 14 15 16 18 13 6 11 20 20 7 12 8 18 8 8 15
21 22 14 26 26 24 23 23 21 21 17 21 21 10 17 13 20 13 19 10 19 19 17 19 13 22 22 25 21 21 23 28 18 14 13 15 15 12 34 16 22 15 14 10 10 1 6 7 10
26 24 24 26 27 25 25 24 26 25 23 15 26 24 18 12 16 10 20 19 25 22 21 24 10 18 28 22 26 23 18 18 17 14 11 14 13 14 10 9 22 33 7 11 8 20 1 2 8
37 34 20 13 23 39 27 29 17 27 9 3 7 13 11 16 13 18 22 24 22 21 27 14 29 29 17 18 21 20 16 18 16 20 10 12 12 12 8 33 30 30 33 34 10 27 19 2 13
34 28 27 30 12 27 29 28 26 15 31 33 29 10 26 14 16 19 19 21 17 14 18 23 29 15 16 15 18 16 16 16 12 19 13 14 11 10 9 12 34 29 13 20 29 27 16 21 4
15 31 28 29 25 38 25 30 26 29 29 33 15 21 26 23 19 17 18 20 21 15 10 20 12 13 12 13 16 15 12 16 15 16 14 11 11 10 11 13 15 39 42 20 35 29 24 18 7
37 36 32 32 34 39 32 32 31 32 34 18 38 38 29 29 18 16 14 20 14 18 13 28 12 23 14 16 14 15 15 15 16 17 16 13 10 10 17 17 18 19 21 30 12 14 29 20 20
44 44 44 45 43 36 32 32 23 38 44 30 43 19 32 17 24 19 13 14 18 17 27 11 9 23 11 15 14 12 14 14 14 12 15 14 16 11 11 14 23 23 24 41 43 19 17 23 30
44 43 40 46 46 37 43 41 35 43 40 35 25 46 35 27 10 13 16 18 22 24 25 16 14 14 20 17 18 16 14 14 16 19 15 15 11 16 14 16 29 25 22 28 37 42 39 19 26
44 45 47 48 48 33 37 38 34 37 16 41 39 43 37 27 45 17 21 23 30 19 29 22 12 15 18 14 18 18 15 14 16 20 20 16 18 25 25 27 31 15 16 20 31 37 42 19 21
Wind_Direction
328 55 53 45 57 45 38 14 76 32 63 28 36 12 61 23 27 9 5 6 11 21 35 35 45 47 55 41 57 63 69 72 83 86 89 89 80 96 65 83 55 43 51 46 36 46 38 34 35
60 28 322 22 354 29 30 55 41 77 48 53 44 22 7 7 8 5 1 358 14 8 12 32 45 54 54 56 50 55 61 62 77 86 83 85 87 96 58 56 58 55 49 33 34 39 40 61 29
346 330 325 347 341 67 25 31 31 58 33 58 1 6 356 1 356 356 12 357 351 15 359 351 47 55 65 69 48 60 58 56 74 92 89 91 89 91 105 41 44 48 28 36 33 40 44 41 19
291 343 51 63 29 18 0 343 6 25 29 67 0 24 4 0 358 359 354 356 353 344 332 334 18 79 70 55 75 70 56 76 71 89 82 96 88 74 50 52 34 29 74 30 37 35 34 29 25
49 274 16 309 2 349 343 345 333 13 336 6 358 346 359 355 1 354 357 355 333 341 341 325 37 48 62 69 67 75 73 51 76 95 81 87 76 74 71 61 49 31 32 27 27 22 13 14 8
36 348 314 349 6 289 17 2 350 354 340 354 349 8 1 348 352 353 354 350 345 342 332 315 252 54 59 72 60 65 73 64 70 81 88 87 59 94 53 49 54 41 29 10 16 26 13 4 1
40 344 302 352 341 67 338 323 348 329 321 18 336 329 358 343 341 352 351 347 352 356 336 297 229 210 0 30 76 59 54 57 55 54 78 85 64 69 71 49 51 50 23 9 22 10 4 10 7
37 292 24 329 289 280 300 314 309 312 24 327 8 12 326 347 347 351 354 350 5 335 4 214 325 225 240 242 17 335 69 45 48 63 58 68 31 63 80 59 70 54 39 31 25 31 24 12 13
314 21 344 313 307 318 314 307 307 310 317 344 320 332 335 338 352 355 356 5 8 16 349 220 267 285 225 217 259 296 318 85 21 37 48 51 55 47 51 59 48 43 52 33 28 28 16 15 19
241 274 296 342 290 280 339 308 315 307 324 345 327 313 336 333 1 357 3 0 11 17 17 12 235 261 191 310 251 270 0 247 34 297 31 40 45 30 60 57 62 38 62 54 34 28 28 33 24
254 306 277 289 296 298 307 312 299 340 318 300 316 318 329 348 356 6 357 360 26 19 357 11 23 259 272 270 258 241 30 251 78 67 36 25 71 4 3 45 42 26 39 47 32 30 24 37 19
252 259 262 261 265 277 304 311 306 300 296 297 291 321 335 355 352 356 355 6 14 24 21 8 18 15 311 261 273 252 274 247 233 261 301 243 311 65 65 314 35 52 16 29 24 28 28 31 32
259 264 288 279 271 274 284 290 281 320 332 311 289 332 350 347 351 2 3 354 11 20 31 20 17 9 332 273 281 281 277 281 266 252 251 306 309 276 43 58 338 24 41 28 44 20 28 36 28
269 264 263 264 275 274 317 318 324 322 324 317 319 309 317 324 341 349 8 10 1 16 13 17 8 6 344 335 318 285 296 237 268 256 260 29 235 267 59 42 286 37 54 38 41 31 19 16 26
269 265 261 276 279 274 263 288 299 308 306 301 329 307 318 320 341 343 353 28 17 3 17 5 8 359 352 344 292 311 279 254 289 240 29 224 254 243 73 338 53 27 348 350 50 27 36 28 23
278 276 291 291 272 265 294 310 298 283 287 302 300 312 312 309 331 0 342 2 8 2 4 358 356 352 328 335 320 297 286 276 271 259 273 270 7 284 282 272 338 335 352 12 55 37 32 20 42
283 284 291 300 295 292 286 291 290 286 290 298 303 304 309 317 319 6 9 352 15 346 351 352 343 332 314 318 322 300 293 285 283 269 253 244 222 258 271 260 260 25 4 307 64 348 41 16 16
283 281 301 296 292 298 294 290 297 294 284 266 283 297 339 297 296 330 323 15 18 1 0 348 332 327 327 320 313 330 298 300 283 284 263 248 218 272 259 275 272 274 262 318 32 33 15 1 25
269 285 287 283 288 281 289 292 291 291 291 309 300 304 296 301 295 318 323 355 333 326 1 329 337 338 330 321 318 308 299 305 284 282 268 257 268 233 233 238 219 282 255 23 64 52 38 7 44
279 282 277 277 276 274 270 272 271 275 284 293 301 295 303 302 304 356 339 315 359 343 327 334 340 338 333 318 309 309 306 299 282 283 279 267 257 236 250 214 248 247 259 88 270 63 58 43 21
277 271 273 273 271 276 270 265 266 263 271 278 293 297 305 298 286 296 357 307 326 327 328 333 349 347 344 335 311 307 332 308 294 279 282 274 271 254 241 256 247 244 269 266 263 273 85 59 359
257 270 280 274 276 273 269 272 258 264 276 278 284 291 286 288 283 298 305 338 316 318 339 342 345 349 344 333 344 310 325 311 306 291 291 293 294 329 219 252 249 243 256 266 282 271 303 336 5
260 250 263 258 268 263 265 260 272 262 257 277 259 276 251 295 292 205 306 317 312 332 328 312 345 354 322 333 328 317 314 304 308 299 294 294 299 341 307 235 242 234 275 268 269 266 194 49 350
267 268 272 274 262 271 262 270 291 264 224 308 232 273 285 245 275 296 296 300 308 315 318 326 319 306 329 335 332 315 316 304 286 278 298 300 291 307 330 222 230 231 244 227 258 254 270 271 282
264 253 255 266 259 261 256 255 259 263 267 277 278 259 270 262 261 260 269 281 300 307 312 318 285 307 321 328 315 326 324 323 274 288 290 288 292 292 300 292 235 224 249 261 237 234 251 257 283
257 259 258 260 274 263 278 259 259 258 264 264 296 291 289 284 280 274 270 287 290 291 278 300 315 306 315 320 311 318 324 320 301 293 279 287 284 291 284 270 316 234 229 256 243 248 246 239 243
261 263 260 258 252 258 258 254 260 258 260 246 265 274 285 283 269 279 298 279 283 288 274 288 300 301 303 307 303 316 318 315 305 265 305 281 278 280 289 287 268 279 257 232 242 244 240 250 250
252 253 253 255 254 256 255 255 247 265 268 273 271 256 278 267 271 274 280 266 287 269 278 268 301 291 286 283 307 311 313 314 311 328 286 263 291 304 295 288 283 280 260 232 232 253 245 251 248
249 250 254 258 260 258 255 259 262 261 267 269 265 272 269 268 249 268 269 279 279 268 277 251 258 306 294 296 297 309 308 316 308 300 321 305 322 294 320 306 306 273 252 240 233 229 237 244 252
252 253 253 255 258 255 250 254 252 261 233 261 262 264 269 272 272 259 272 270 260 285 288 252 281 300 293 287 293 304 316 316 334 302 300 319 324 314 326 328 326 295 241 257 235 229 226 239 244